52,2013-07-17 19:27:15,1374089235,55.23692,-10.11362,3,2,2013-07-17 19:26:00,1374089160,18.04,1,15.8,0,4095,55.2022,-10.0748,34,48
53,2013-07-17 20:06:20,1374091580,55.18217,-10.16442,2,2,2013-07-17 20:00:00,1374091200,16.89,3,15.8,30,4095,55.2022,-10.0748,34,48
54,2013-07-17 20:24:01,1374092641,55.16797,-8.82252,106,1,2013-07-17 20:23:00,1374092580,15.15,6,15.8,0,4095,55.189,-10.0786,12,48
55,2013-07-17 21:06:12,1374095172,55.18737,-10.10259,2,2,2013-07-17 21:00:00,1374094800,15.15,4,15.8,30,0,55.1938,-10.0702,58,44
56,2013-07-17 22:06:11,1374098771,55.21816,-9.97886,10,2,2013-07-17 22:00:00,1374098400,15.14,4,15.8,30,60,55.1938,-10.0702,58,44
57,2013-07-17 23:06:12,1374102372,55.16348,-10.02979,3,1,2013-07-17 23:00:00,1374102000,15.13,4,15.8,30,120,55.1938,-10.0702,58,44
58,2013-07-18 00:06:12,1374105972,55.16348,-10.02979,2,6,2013-07-18 00:00:00,1374105600,15.12,3,15.8,30,0,55.1934,-10.0252,34,44
59,2013-07-18 01:06:11,1374109571,55.21303,-10.04073,9,1,2013-07-18 01:00:00,1374109200,15.11,4,15.8,30,60,55.1934,-10.0252,34,44
60,2013-07-18 02:06:10,1374113170,55.1686,-9.96798,2,2,2013-07-18 02:00:00,1374112800,15.12,4,15.8,30,120,55.1934,-10.0252,34,44
61,2013-07-18 03:06:11,1374116771,55.16348,-10.02979,2,2,2013-07-18 03:00:00,1374116400,15.12,3,15.8,30,0,55.185,-10.0142,58,48
62,2013-07-18 04:06:08,1374120368,55.16348,-10.02979,2,2,2013-07-18 04:00:00,1374120000,15.12,3,15.8,30,60,55.185,-10.0142,58,48
63,2013-07-18 05:06:09,1374123969,55.1686,-9.96798,2,1,2013-07-18 05:00:00,1374123600,15.12,4,15.8,30,120,55.185,-10.0142,58,48
64,2013-07-18 06:06:14,1374127574,55.21816,-9.97886,2,1,2013-07-18 06:00:00,1374127200,15.13,4,15.8,30,0,55.194,-10.0254,52,48
65,2013-07-18 07:06:09,1374131169,55.21303,-10.04073,2,0,2013-07-18 07:00:00,1374130800,15.15,4,15.8,30,60,55.194,-10.0254,52,48
66,2013-07-18 08:06:09,1374134769,55.16348,-10.02979,6,0,2013-07-18 08:00:00,1374134400,15.17,3,15.8,30,120,55.194,-10.0254,52,48
67,2013-07-18 09:06:08,1374138368,55.16348,-10.02979,3,2,2013-07-18 09:00:00,1374138000,15.2,3,15.8,30,0,55.2064,-10.0194,34,48
68,2013-07-18 10:06:15,1374141975,55.20159,-12.80148,192,2,2013-07-18 10:00:00,1374141600,15.25,4,15.8,30,60,55.2064,-10.0194,34,48
69,2013-07-18 11:06:08,1374145568,55.21816,-9.97886,2,2,2013-07-18 11:00:00,1374145200,15.28,3,15.8,30,120,55.2064,-10.0194,34,48
70,2013-07-18 12:06:12,1374149172,55.24153,-10.75488,96,4,2013-07-18 12:00:00,1374148800,15.33,3,15.8,30,0,55.2148,-9.98579999999998,64,48
71,2013-07-18 13:06:08,1374152768,55.19766,-9.97886,4,2,2013-07-18 13:00:00,1374152400,15.33,3,15.8,30,60,55.2148,-9.98579999999998,64,48
72,2013-07-18 14:06:11,1374156371,55.23173,-10.17551,67,5,2013-07-18 14:00:00,1374156000,15.38,3,15.8,30,120,55.2148,-9.98579999999998,64,48
73,2013-07-18 15:06:12,1374159972,55.21816,-9.97886,2,3,2013-07-18 15:00:00,1374159600,15.51,3,15.8,30,0,55.2094,-9.965,34,48
74,2013-07-18 16:06:08,1374163568,55.08626,-7.66919,177,2,2013-07-18 16:00:00,1374163200,15.56,4,15.8,30,60,55.2094,-9.965,34,48
75,2013-07-18 17:06:09,1374167169,55.24723,-9.98976,7,1,2013-07-18 17:00:00,1374166800,15.53,4,15.8,30,120,55.2094,-9.965,34,48
76,2013-07-18 18:06:08,1374170768,55.21303,-10.04073,4,2,2013-07-18 18:00:00,1374170400,15.48,3,15.8,30,0,55.215,-9.97899999999998,34,48
77,2013-07-18 19:06:14,1374174374,55.24723,-9.98976,5,5,2013-07-18 19:00:00,1374174000,15.5,3,15.8,30,60,55.215,-9.97899999999998,34,48
78,2013-07-18 20:06:09,1374177969,55.19306,-6.54834,231,2,2013-07-18 20:00:00,1374177600,15.47,3,15.8,30,120,55.215,-9.97899999999998,34,48
79,2013-07-18 21:06:11,1374181571,55.24723,-9.98976,4,11,2013-07-18 21:00:00,1374181200,15.47,3,15.8,30,0,55.2254,-9.98699999999999,12,44
80,2013-07-18 22:06:11,1374185171,55.21816,-9.97886,6,16,2013-07-18 22:00:00,1374184800,15.49,3,15.8,30,60,55.2254,-9.98699999999999,12,44
81,2013-07-18 23:06:08,1374188768,55.25234,-9.92779,3,1,2013-07-18 23:00:00,1374188400,15.46,3,15.8,30,120,55.2254,-9.98699999999999,12,44
82,2013-07-19 00:06:08,1374192368,55.21816,-9.97886,4,1,2013-07-19 00:00:00,1374192000,15.41,3,15.8,30,0,55.2408,-9.9554,34,48
83,2013-07-19 01:09:43,1374196183,55.27281,-9.92779,16,1,2013-07-19 01:00:00,1374195600,15.39,3,15.8,30,60,55.2408,-9.9554,34,48
84,2013-07-19 02:06:14,1374199574,55.22326,-9.91696,6,4,2013-07-19 01:00:00,1374195600,15.39,3,15.8,30,60,55.2408,-9.9554,34,48
85,2013-07-19 02:06:23,1374199583,55.22326,-9.91696,6,2,2013-07-19 02:00:00,1374199200,15.39,4,15.8,255,120,55.2408,-9.9554,34,48
86,2013-07-19 03:06:07,1374203167,55.22326,-9.91696,11,1,2013-07-19 03:00:00,1374202800,15.38,4,15.8,30,0,55.2414,-9.9308,16,48
87,2013-07-19 04:06:08,1374206768,55.25234,-9.92779,3,1,2013-07-19 04:00:00,1374206400,15.34,3,15.8,30,60,55.2414,-9.9308,16,48
88,2013-07-19 05:06:10,1374210370,55.24723,-9.98976,4,2,2013-07-19 05:00:00,1374210000,15.33,4,15.8,30,120,55.2414,-9.9308,16,48
89,2013-07-19 06:06:09,1374213969,55.22326,-9.91696,3,1,2013-07-19 06:00:00,1374213600,15.29,4,15.8,30,0,55.2406,-9.94239999999999,64,48
90,2013-07-19 07:06:08,1374217568,55.21816,-9.97886,2,1,2013-07-19 07:00:00,1374217200,15.31,3,15.6,30,60,55.2406,-9.94239999999999,64,48
91,2013-07-19 08:06:13,1374221173,55.2677,-9.98976,11,1,2013-07-19 08:00:00,1374220800,15.33,4,15.6,30,120,55.2406,-9.94239999999999,64,48
92,2013-07-19 09:06:07,1374224767,55.25234,-9.92779,2,1,2013-07-19 09:00:00,1374224400,15.35,4,15.6,30,0,55.2476,-9.95679999999999,56,44
93,2013-07-19 10:06:07,1374228367,55.14867,-14.99616,327,4,2013-07-19 10:00:00,1374228000,15.39,4,15.6,30,60,55.2476,-9.95679999999999,56,44
94,2013-07-19 11:06:38,1374231998,55.30698,-9.8766,13,2,2013-07-19 11:00:00,1374231600,15.44,4,15.6,30,120,55.2476,-9.95679999999999,56,44
95,2013-07-19 12:06:10,1374235570,55.41364,-12.80987,194,2,2013-07-19 12:00:00,1374235200,15.51,4,15.6,39,0,55.2598,-9.94319999999999,94,48
96,2013-07-19 13:06:07,1374239167,55.21816,-9.97886,6,2,2013-07-19 13:00:00,1374238800,15.59,4,15.6,30,60,55.2598,-9.94319999999999,94,48
97,2013-07-19 14:06:10,1374242770,55.25234,-9.92779,3,2,2013-07-19 14:00:00,1374242400,15.65,3,15.6,30,120,55.2598,-9.94319999999999,94,48
98,2013-07-19 15:06:08,1374246368,55.22832,-9.85504,2,2,2013-07-19 15:00:00,1374246000,15.69,4,15.6,30,0,55.2586,-9.93099999999998,34,40
99,2013-07-19 16:06:07,1374249967,55.22371,-9.15234,82,3,2013-07-19 16:00:00,1374249600,15.73,4,15.6,30,60,55.2586,-9.93099999999998,34,40
100,2013-07-19 17:06:07,1374253567,55.24723,-9.98976,2,2,2013-07-19 17:00:00,1374253200,15.75,6,15.6,30,120,55.2586,-9.93099999999998,34,40
101,2013-07-19 18:06:10,1374257170,55.23765,-8.96609,97,2,2013-07-19 18:00:00,1374256800,15.75,4,15.6,30,0,55.26,-9.94659999999999,36,48
102,2013-07-19 19:06:07,1374260767,55.29679,-10.00068,3,2,2013-07-19 19:00:00,1374260400,15.71,6,15.6,30,60,55.26,-9.94659999999999,36,48
103,2013-07-19 20:06:09,1374264369,55.25234,-9.92779,13,4,2013-07-19 20:00:00,1374264000,15.74,5,15.6,30,120,55.26,-9.94659999999999,36,48
104,2013-07-19 21:06:07,1374267967,55.27281,-9.92779,2,2,2013-07-19 21:00:00,1374267600,15.76,4,15.6,30,0,55.2748,-9.95359999999999,90,48
105,2013-07-19 22:06:08,1374271568,55.25234,-9.92779,4,1,2013-07-19 22:00:00,1374271200,15.75,5,15.6,30,60,55.2748,-9.95359999999999,90,48
106,2013-07-19 23:06:21,1374275181,55.3019,-9.93865,9,1,2013-07-19 23:00:00,1374274800,15.8,4,15.6,30,120,55.2748,-9.95359999999999,90,48
107,2013-07-20 00:06:07,1374278767,55.27788,-9.86581,2,2,2013-07-20 00:00:00,1374278400,15.83,4,15.6,30,0,55.283,-9.92999999999998,96,44
108,2013-07-20 01:06:07,1374282367,55.4015,-7.60299,167,1,2013-07-20 01:00:00,1374282000,15.84,4,15.6,30,60,55.283,-9.92999999999998,96,44
109,2013-07-20 02:06:07,1374285967,55.25234,-9.92779,3,1,2013-07-20 02:00:00,1374285600,15.83,3,15.6,30,120,55.283,-9.92999999999998,96,44
110,2013-07-20 03:06:14,1374289574,55.3019,-9.93865,8,4,2013-07-20 03:00:00,1374289200,15.8,3,15.6,30,0,55.281,-9.90819999999999,36,48
111,2013-07-20 04:06:07,1374293167,55.25741,-9.86581,2,1,2013-07-20 04:00:00,1374292800,15.8,4,15.6,30,60,55.281,-9.90819999999999,36,48
112,2013-07-20 05:06:10,1374296770,55.24723,-9.98976,3,8,2013-07-20 05:00:00,1374296400,15.84,4,15.6,30,120,55.281,-9.90819999999999,36,48
113,2013-07-20 06:06:15,1374300375,55.27281,-9.92779,2,1,2013-07-20 06:00:00,1374300000,15.85,4,15.6,30,0,55.2756,-9.91079999999999,36,48
114,2013-07-20 07:06:08,1374303968,55.23336,-9.79309,15,1,2013-07-20 07:00:00,1374303600,15.89,5,15.6,30,60,55.2756,-9.91079999999999,36,48
115,2013-07-20 08:06:10,1374307570,55.27788,-9.86581,2,4,2013-07-20 08:00:00,1374307200,15.94,4,15.6,30,120,55.2756,-9.91079999999999,36,48
116,2013-07-20 09:06:07,1374311167,55.29679,-10.00068,2,1,2013-07-20 09:00:00,1374310800,16.04,5,15.6,30,0,55.2832,-9.93599999999998,12,48
117,2013-07-20 10:06:06,1374314766,55.24723,-9.98976,8,1,2013-07-20 10:00:00,1374314400,16.07,4,15.6,30,60,55.2832,-9.93599999999998,12,48
118,2013-07-20 11:06:06,1374318366,55.30698,-9.8766,3,3,2013-07-20 11:00:00,1374318000,16.38,4,15.6,30,120,55.2832,-9.93599999999998,12,48
119,2013-07-20 12:06:07,1374321967,55.32235,-9.93865,12,2,2013-07-20 12:00:00,1374321600,16.53,4,15.6,30,0,55.2934,-9.9194,36,48
120,2013-07-20 13:06:11,1374325571,55.30698,-9.8766,6,2,2013-07-20 13:00:00,1374325200,16.63,4,15.6,30,60,55.2934,-9.9194,36,48
121,2013-07-20 14:06:10,1374329170,55.48877,-14.38925,10,1,2013-07-20 14:00:00,1374328800,16.72,3,15.6,30,120,55.2934,-9.9194,36,48
122,2013-07-20 15:06:07,1374332767,55.30698,-9.8766,3,1,2013-07-20 15:00:00,1374332400,16.83,4,15.6,30,0,55.2956,-9.89699999999999,36,44
123,2013-07-20 16:06:05,1374336365,55.3764,-11.37182,116,2,2013-07-20 16:00:00,1374336000,16.96,4,15.6,30,60,55.2956,-9.89699999999999,36,44
124,2013-07-20 17:06:06,1374339966,55.3019,-9.93865,2,2,2013-07-20 17:00:00,1374339600,17.07,5,15.6,30,120,55.2956,-9.89699999999999,36,44
125,2013-07-20 18:06:06,1374343566,55.22371,-9.15234,174,2,2013-07-20 18:00:00,1374343200,17.21,4,15.6,30,0,55.2902,-9.9014,36,48
126,2013-07-20 19:06:07,1374347167,55.27281,-9.92779,5,1,2013-07-20 19:00:00,1374346800,17.16,3,15.6,30,60,55.2902,-9.9014,36,48
127,2013-07-20 20:06:09,1374350769,55.24425,-8.45923,113,1,2013-07-20 20:00:00,1374350400,17.14,3,15.6,30,120,55.2902,-9.9014,36,48
128,2013-07-20 21:06:14,1374354374,55.29679,-10.00068,2,4,2013-07-20 21:00:00,1374354000,17.08,4,15.6,30,0,55.3026,-9.93199999999999,8,44
129,2013-07-20 22:06:09,1374357969,55.3019,-9.93865,3,1,2013-07-20 22:00:00,1374357600,17.06,3,15.6,30,60,55.3026,-9.93199999999999,8,44
130,2013-07-20 23:06:09,1374361569,55.30698,-9.8766,2,5,2013-07-20 23:00:00,1374361200,17.04,3,15.6,30,120,55.3026,-9.93199999999999,8,44
131,2013-07-21 00:06:09,1374365169,55.3019,-9.93865,2,1,2013-07-21 00:00:00,1374364800,16.99,3,15.6,30,0,55.3206,-9.90879999999999,32,48
132,2013-07-21 01:06:09,1374368769,55.35654,-9.88742,23,2,2013-07-21 01:00:00,1374368400,16.95,3,15.6,30,60,55.3206,-9.90879999999999,32,48
133,2013-07-21 02:06:11,1374372371,55.31204,-9.81452,2,6,2013-07-21 02:00:00,1374372000,16.77,3,15.6,30,120,55.3206,-9.90879999999999,32,48
134,2013-07-21 03:06:13,1374375973,55.44108,-7.28968,175,8,2013-07-21 03:00:00,1374375600,16.54,4,15.6,30,0,55.3256,-9.86519999999999,32,44
135,2013-07-21 04:06:16,1374379576,55.30698,-9.8766,2,3,2013-07-21 04:00:00,1374379200,16.41,3,15.6,30,60,55.3256,-9.86519999999999,32,44
136,2013-07-21 05:06:09,1374383169,55.31204,-9.81452,3,1,2013-07-21 05:00:00,1374382800,16.34,4,15.6,30,120,55.3256,-9.86519999999999,32,44
137,2013-07-21 06:06:15,1374386775,55.31204,-9.81452,2,1,2013-07-21 06:00:00,1374386400,16.33,4,15.6,30,0,55.3128,-9.8502,32,48
138,2013-07-21 07:06:09,1374390369,55.3019,-9.93865,3,2,2013-07-21 07:00:00,1374390000,16.35,4,15.6,30,60,55.3128,-9.8502,32,48
139,2013-07-21 08:06:09,1374393969,55.27788,-9.86581,4,1,2013-07-21 08:00:00,1374393600,16.32,4,15.6,30,120,55.3128,-9.8502,32,48
140,2013-07-21 09:06:16,1374397576,55.3019,-9.93865,4,13,2013-07-21 09:00:00,1374397200,16.47,3,15.6,30,0,55.3112,-9.8914,34,48
141,2013-07-21 10:06:12,1374401172,55.35654,-9.88742,6,0,2013-07-21 10:00:00,1374400800,16.57,3,15.6,30,60,55.3112,-9.8914,34,48
142,2013-07-21 11:06:11,1374404771,55.30698,-9.8766,2,2,2013-07-21 11:00:00,1374404400,16.78,3,15.6,30,120,55.3112,-9.8914,34,48
143,2013-07-21 12:06:11,1374408371,55.35145,-9.94954,4,2,2013-07-21 12:00:00,1374408000,16.89,4,15.6,30,0,55.3318,-9.91479999999999,52,48
144,2013-07-21 13:06:09,1374411969,55.3019,-9.93865,4,2,2013-07-21 13:00:00,1374411600,16.9,5,15.6,30,60,55.3318,-9.91479999999999,52,48
145,2013-07-21 14:06:10,1374415570,55.60259,-14.37509,291,2,2013-07-21 14:00:00,1374415200,16.95,4,15.6,30,120,55.3318,-9.91479999999999,52,48
146,2013-07-21 15:06:10,1374419170,55.35654,-9.88742,2,1,2013-07-21 15:00:00,1374418800,16.95,4,15.6,30,0,55.3548,-9.8724,34,44
147,2013-07-21 16:06:08,1374422768,55.44207,-11.84307,160,3,2013-07-21 16:00:00,1374422400,16.95,5,15.6,30,60,55.3548,-9.8724,34,44
148,2013-07-21 17:08:54,1374426534,55.35654,-9.88742,3,2,2013-07-21 17:00:00,1374426000,16.94,4,15.6,30,120,55.3548,-9.8724,34,44
149,2013-07-21 18:06:14,1374429974,55.38052,-10.66619,83,4,2013-07-21 18:00:00,1374429600,16.79,5,15.6,175,0,55.3468,-9.83320000000001,82,48
150,2013-07-21 19:06:10,1374433570,55.3616,-9.82528,5,2,2013-07-21 19:00:00,1374433200,16.89,4,15.6,30,60,55.3468,-9.83320000000001,82,48
151,2013-07-21 20:06:10,1374437170,55.38992,-10.7902,109,1,2013-07-21 20:00:00,1374436800,16.93,4,15.6,30,120,55.3468,-9.83320000000001,82,48
152,2013-07-21 21:06:13,1374440773,55.35654,-9.88742,4,4,2013-07-21 21:00:00,1374440400,16.92,4,15.6,30,0,55.3372,-9.86779999999999,34,44
153,2013-07-21 22:06:08,1374444368,55.3019,-9.93865,14,2,2013-07-21 22:00:00,1374444000,16.91,4,15.6,30,60,55.3372,-9.86779999999999,34,44
154,2013-07-21 23:06:08,1374447968,55.35654,-9.88742,3,1,2013-07-21 23:00:00,1374447600,16.87,4,15.6,30,120,55.3372,-9.86779999999999,34,44
155,2013-07-22 00:06:08,1374451568,55.35654,-9.88742,3,1,2013-07-22 00:00:00,1374451200,16.84,4,15.6,30,0,55.3636,-9.90479999999999,34,48
156,2013-07-22 01:06:08,1374455168,55.36508,-10.14685,66,1,2013-07-22 01:00:00,1374454800,16.77,4,15.6,30,60,55.3636,-9.90479999999999,34,48
157,2013-07-22 02:06:08,1374458768,55.35654,-9.88742,5,1,2013-07-22 02:00:00,1374458400,16.7,3,15.6,30,120,55.3636,-9.90479999999999,34,48
158,2013-07-22 03:06:10,1374462370,55.42034,-8.94307,131,1,2013-07-22 03:00:00,1374462000,16.7,4,15.6,30,0,55.3892,-9.86579999999998,12,44
159,2013-07-22 04:06:07,1374465967,55.41114,-9.83605,2,1,2013-07-22 04:00:00,1374465600,16.66,4,15.6,30,60,55.3892,-9.86579999999998,12,44
160,2013-07-22 05:06:08,1374469568,55.40607,-9.89826,7,1,2013-07-22 05:00:00,1374469200,16.59,4,15.6,30,120,55.3892,-9.86579999999998,12,44
161,2013-07-22 06:06:19,1374473179,55.41114,-9.83605,4,1,2013-07-22 06:00:00,1374472800,16.58,4,15.6,30,0,55.3808,-9.81780000000001,58,48
162,2013-07-22 07:06:10,1374476770,55.35654,-9.88742,5,1,2013-07-22 07:00:00,1374476400,16.58,3,15.6,30,60,55.3808,-9.81780000000001,58,48
163,2013-07-22 08:06:08,1374480368,55.41618,-9.77382,7,1,2013-07-22 08:00:00,1374480000,16.63,3,15.6,30,120,55.3808,-9.81780000000001,58,48
164,2013-07-22 09:06:10,1374483970,55.36663,-9.76311,3,1,2013-07-22 09:00:00,1374483600,16.65,3,15.6,30,0,55.3648,-9.82679999999999,54,48
165,2013-07-22 10:06:08,1374487568,55.3616,-9.82528,1,0,2013-07-22 10:00:00,1374487200,16.86,3,15.6,30,60,55.3648,-9.82679999999999,54,48
166,2013-07-22 11:06:11,1374491171,55.35654,-9.88742,7,2,2013-07-22 11:00:00,1374490800,16.89,3,15.6,30,120,55.3648,-9.82679999999999,54,48
167,2013-07-22 12:06:07,1374494767,55.3616,-9.82528,2,2,2013-07-22 12:00:00,1374494400,17.05,4,15.6,30,0,55.3692,-9.87819999999999,34,48
168,2013-07-22 13:06:08,1374498368,55.38057,-9.96044,1,2,2013-07-22 13:00:00,1374498000,17.08,4,15.6,30,60,55.3692,-9.87819999999999,34,48
169,2013-07-22 14:06:09,1374501969,55.40098,-9.96044,3,3,2013-07-22 14:00:00,1374501600,17.11,3,15.6,30,120,55.3692,-9.87819999999999,34,48
170,2013-07-22 15:06:10,1374505570,55.3616,-9.82528,2,2,2013-07-22 15:00:00,1374505200,17.18,4,15.6,30,0,55.3978,-9.8742,34,44
171,2013-07-22 16:06:10,1374509170,55.41114,-9.83605,4,2,2013-07-22 16:00:00,1374508800,17.23,4,15.6,30,60,55.3978,-9.8742,34,44
172,2013-07-22 17:06:11,1374512771,55.41114,-9.83605,2,8,2013-07-22 17:00:00,1374512400,17.18,3,15.6,30,120,55.3978,-9.8742,34,44
173,2013-07-22 18:06:07,1374516367,55.41618,-9.77382,11,3,2013-07-22 18:00:00,1374516000,17.19,3,15.6,30,0,55.4078,-9.81299999999999,88,48
174,2013-07-22 19:06:22,1374519982,55.41114,-9.83605,3,3,2013-07-22 19:00:00,1374519600,16.97,4,15.6,30,60,55.4078,-9.81299999999999,88,48
175,2013-07-22 20:06:40,1374523600,55.41721,-10.47998,1562,2,2013-07-22 20:00:00,1374523200,16.65,3,15.6,30,120,55.4078,-9.81299999999999,88,48
176,2013-07-22 21:06:07,1374527167,55.41618,-9.77382,2,3,2013-07-22 21:00:00,1374526800,16.64,4,15.6,42,0,55.4004,-9.80759999999998,16,48
177,2013-07-22 22:06:07,1374530767,55.3616,-9.82528,4,2,2013-07-22 22:00:00,1374530400,16.89,4,15.6,30,60,55.4004,-9.80759999999998,16,48
178,2013-07-22 23:06:11,1374534371,55.3616,-9.82528,6,1,2013-07-22 23:00:00,1374534000,17.08,4,15.6,30,120,55.4004,-9.80759999999998,16,48
179,2013-07-23 00:06:12,1374537972,55.3616,-9.82528,4,2,2013-07-23 00:00:00,1374537600,17.04,3,15.6,30,0,55.4008,-9.8442,34,48
180,2013-07-23 01:06:15,1374541575,55.31439,-11.80428,144,1,2013-07-23 01:00:00,1374541200,16.94,3,15.6,30,60,55.4008,-9.8442,34,48
181,2013-07-23 02:06:08,1374545168,55.39074,-9.83605,3,1,2013-07-23 02:00:00,1374544800,16.76,2,15.6,30,120,55.4008,-9.8442,34,48
182,2013-07-23 03:06:07,1374548767,55.46994,-8.9529,98,1,2013-07-23 03:00:00,1374548400,16.7,2,15.6,30,0,55.4222,-9.84479999999999,34,48
183,2013-07-23 04:06:07,1374552367,55.44029,-9.84685,4,1,2013-07-23 04:00:00,1374552000,16.74,3,15.6,30,60,55.4222,-9.84479999999999,34,48
184,2013-07-23 05:06:16,1374555976,55.40098,-9.96044,11,1,2013-07-23 05:00:00,1374555600,16.73,3,15.6,30,120,55.4222,-9.84479999999999,34,48
185,2013-07-23 06:06:07,1374559567,55.41114,-9.83605,2,1,2013-07-23 06:00:00,1374559200,16.7,3,15.6,30,0,55.433,-9.80840000000001,36,48
186,2013-07-23 07:06:07,1374563167,55.5467,-7.69096,172,0,2013-07-23 07:00:00,1374562800,16.7,3,15.6,30,60,55.433,-9.80840000000001,36,48
187,2013-07-23 08:06:10,1374566770,55.41618,-9.77382,1,2,2013-07-23 08:00:00,1374566400,16.73,3,15.6,30,120,55.433,-9.80840000000001,36,48
188,2013-07-23 09:06:15,1374570375,55.68038,-5.60927,276,35,2013-07-23 09:00:00,1374570000,16.79,3,15.6,30,0,55.431,-9.79819999999998,36,48
189,2013-07-23 10:06:14,1374573974,55.41114,-9.83605,5,2,2013-07-23 10:00:00,1374573600,16.8,4,15.6,30,60,55.431,-9.79819999999998,36,48
190,2013-07-23 11:06:12,1374577572,55.41114,-9.83605,2,18,2013-07-23 11:00:00,1374577200,16.72,3,15.6,30,120,55.431,-9.79819999999998,36,48
191,2013-07-23 12:06:12,1374581172,55.44029,-9.84685,8,4,2013-07-23 12:00:00,1374580800,16.76,3,15.6,30,0,55.4206,-9.82039999999998,32,48
192,2013-07-23 13:06:12,1374584772,55.44029,-9.84685,8,2,2013-07-23 13:00:00,1374584400,17.07,3,15.6,30,60,55.4206,-9.82039999999998,32,48
193,2013-07-23 14:06:10,1374588370,55.41618,-9.77382,3,3,2013-07-23 14:00:00,1374588000,17.26,3,15.6,30,120,55.4206,-9.82039999999998,32,48
194,2013-07-23 15:06:13,1374591973,55.41114,-9.83605,3,6,2013-07-23 15:00:00,1374591600,16.91,3,15.6,30,0,55.4304,-9.84219999999999,32,48
195,2013-07-23 16:06:10,1374595570,55.40607,-9.89826,3,10,2013-07-23 16:00:00,1374595200,16.99,3,15.6,30,60,55.4304,-9.84219999999999,32,48
196,2013-07-23 17:06:11,1374599171,55.46067,-9.84685,2,9,2013-07-23 17:00:00,1374598800,17.05,3,15.6,30,120,55.4304,-9.84219999999999,32,48
197,2013-07-23 18:06:13,1374602773,55.65701,-13.28057,237,5,2013-07-23 18:00:00,1374602400,17.11,3,15.6,30,0,55.454,-9.81379999999999,32,48
198,2013-07-23 19:06:15,1374606375,55.47073,-9.72224,2,3,2013-07-23 19:00:00,1374606000,16.98,4,15.6,30,60,55.454,-9.81379999999999,32,48
199,2013-07-23 20:06:10,1374609970,55.5875,-12.60453,192,10,2013-07-23 20:00:00,1374609600,16.7,3,15.6,30,120,55.454,-9.81379999999999,32,48
200,2013-07-23 21:06:13,1374613573,55.46067,-9.84685,1,6,2013-07-23 21:00:00,1374613200,16.54,4,15.6,30,0,55.458,-9.78100000000001,32,48
201,2013-07-23 22:06:14,1374617174,55.56152,-12.26747,179,8,2013-07-23 22:00:00,1374616800,16.46,5,15.6,30,60,55.458,-9.78100000000001,32,48
202,2013-07-23 23:06:11,1374620771,55.41618,-9.77382,2,9,2013-07-23 23:00:00,1374620400,16.68,5,15.6,30,120,55.458,-9.78100000000001,32,48
203,2013-07-24 00:06:08,1374624368,55.41114,-9.83605,2,2,2013-07-24 00:00:00,1374624000,16.67,3,15.6,30,0,55.4462,-9.79659999999998,92,44
204,2013-07-24 01:06:14,1374627974,55.43598,-11.90493,154,2,2013-07-24 01:00:00,1374627600,16.7,3,15.6,30,60,55.4462,-9.79659999999998,92,44
205,2013-07-24 02:06:10,1374631570,55.41618,-9.77382,2,2,2013-07-24 02:00:00,1374631200,16.62,5,15.6,30,120,55.4462,-9.79659999999998,92,44
206,2013-07-24 03:06:14,1374635174,55.36467,-11.49552,128,3,2013-07-24 03:00:00,1374634800,16.65,4,15.6,30,0,55.4464,-9.82980000000001,28,44
207,2013-07-24 04:06:12,1374638772,55.44029,-9.84685,2,4,2013-07-24 04:00:00,1374638400,16.31,4,15.6,30,60,55.4464,-9.82980000000001,28,44
208,2013-07-24 05:06:19,1374642379,55.46067,-9.84685,3,1,2013-07-24 05:00:00,1374642000,16.49,3,15.6,30,120,55.4464,-9.82980000000001,28,44
209,2013-07-24 06:06:10,1374645970,55.46571,-9.78456,2,1,2013-07-24 06:00:00,1374645600,16.57,4,15.6,30,0,55.472,-9.80859999999998,32,48
210,2013-07-24 07:06:13,1374649573,55.56408,-8.33636,113,1,2013-07-24 07:00:00,1374649200,16.5,4,15.6,30,60,55.472,-9.80859999999998,32,48
211,2013-07-24 08:06:10,1374653170,55.49488,-9.79531,3,0,2013-07-24 08:00:00,1374652800,16.44,5,15.6,30,120,55.472,-9.80859999999998,32,48
212,2013-07-24 09:06:12,1374656772,55.46067,-9.84685,12,1,2013-07-24 09:00:00,1374656400,16.39,4,15.6,30,0,55.4776,-9.77019999999999,50,48
213,2013-07-24 10:06:12,1374660372,55.49991,-9.73293,5,1,2013-07-24 10:00:00,1374660000,16.41,4,15.6,30,60,55.4776,-9.77019999999999,50,48
214,2013-07-24 11:06:39,1374663999,55.47073,-9.72224,3,2,2013-07-24 11:00:00,1374663600,16.42,6,15.6,30,120,55.4776,-9.77019999999999,50,48
215,2013-07-24 12:06:14,1374667574,55.46067,-9.84685,4,3,2013-07-24 12:00:00,1374667200,16.46,5,15.6,39,0,55.4536,-9.77679999999998,110,44
216,2013-07-24 13:06:09,1374671169,55.41618,-9.77382,6,2,2013-07-24 13:00:00,1374670800,16.45,5,15.6,30,60,55.4536,-9.77679999999998,110,44
217,2013-07-24 14:06:09,1374674769,55.46571,-9.78456,2,5,2013-07-24 14:00:00,1374674400,16.46,6,15.6,30,120,55.4536,-9.77679999999998,110,44
218,2013-07-24 15:06:14,1374678374,55.46067,-9.84685,2,4,2013-07-24 15:00:00,1374678000,16.49,5,15.6,30,0,55.4474,-9.80939999999998,64,44
219,2013-07-24 16:06:09,1374681969,55.44029,-9.84685,12,3,2013-07-24 16:00:00,1374681600,16.49,4,15.6,30,60,55.4474,-9.80939999999998,64,44
220,2013-07-24 17:06:12,1374685572,55.41618,-9.77382,9,4,2013-07-24 17:00:00,1374685200,16.54,4,15.6,30,120,55.4474,-9.80939999999998,64,44
221,2013-07-24 18:06:12,1374689172,55.79939,-14.85735,328,3,2013-07-24 18:00:00,1374688800,16.56,4,15.6,30,0,55.4686,-9.79259999999999,56,48
222,2013-07-24 19:06:09,1374692769,55.46571,-9.78456,2,6,2013-07-24 19:00:00,1374692400,16.5,4,15.6,30,60,55.4686,-9.79259999999999,56,48
223,2013-07-24 20:06:09,1374696369,55.49991,-9.73293,10,5,2013-07-24 20:00:00,1374696000,16.42,4,15.6,30,120,55.4686,-9.79259999999999,56,48
224,2013-07-24 21:06:10,1374699970,55.49991,-9.73293,5,2,2013-07-24 21:00:00,1374699600,16.42,5,15.6,30,0,55.4706,-9.74199999999999,34,44
225,2013-07-24 22:06:11,1374703571,55.44534,-9.78456,2,5,2013-07-24 22:00:00,1374703200,16.41,4,15.6,30,60,55.4706,-9.74199999999999,34,44
226,2013-07-24 23:06:11,1374707171,55.47571,-9.65989,3,7,2013-07-24 23:00:00,1374706800,16.36,4,15.6,30,120,55.4706,-9.74199999999999,34,44
227,2013-07-25 00:06:12,1374710772,55.47073,-9.72224,2,4,2013-07-25 00:00:00,1374710400,16.39,3,15.6,30,0,55.45,-9.73579999999998,56,48